ONEWEB-0040, 45147

Orbit data source: Space-Track

ONEWEB-0040, 45147 is a payload satellite owned by One Web (UK) in LEO that was launched on Thu, 06 Feb 2020 UTC via a SOYUZ-2-1B launch vehicle from the Tyuratam Missile And Space Complex (TTMTR). Payload-class satellites include a variety of spacecraft equipped with specific instruments for various scientific and technological missions. These include communications satellites like Starlink; space stations such as the ISS; scientific satellites like the Hubble; Earth observation satellites from companies like Planet Labs, Umbra, and HawkEye 360; GPS; miniature CubeSats for education and research; and military/defense satellites.

Loading next visibility...
Identifier
45147, 2020-008S
Orbit
LEO
Country
Flag of UKUK
Related business
Manufacturer
One Web
Mission
Operational Commercial Communications
Bus & Motor
ARROW, Unknown motor
Mass
148 kg wet, ~140 kg dry
Launch date (UTC)
2020-02-06 (6 years ago)
Launch vehicle
SOYUZ-2-1B
Launch site
Tyuratam Missile And Space Complex (TTMTR)
Object type
Payload
Rocket body
Debris
Shape & HBR
Trap Box + 2 Pan, 6.7 m
Radar Cross Section
3.464 m², Large (>1 m²)

Expand to show TLE details & history
Last TLE update: 7 hours ago

TLE from 7 hours ago
0 ONEWEB-0040
1 45147U 20008S   26035.11110821 -.00000351  00000-0 -10425-2 0  9997
2 45147  87.8754  62.8013 0001760  93.6163 266.5166 13.10375442290434
Epoch: 2026-02-04T02:39Z
TLE epoch observation values (Epoch: 2026-02-04T02:39:59.749Z)
Latitude
0.00002°
Longitude
-111.48004°
Altitude
1,224.676 km
Speed
7.242 km/s
True Right ascension
04h 11m 12s
True Declination
0° 00' 00"
Sunlit
Object was in daylight at epoch
Visualization orbit readout
Latitude
Unknown
Longitude
Unknown
Altitude
Unknown
Speed
Unknown
Apparent Right ascension
Unknown
Apparent Declination
Unknown
Sunlit
N/A
Visualization observer readout
Local Sidereal Time
11:44:24
Azimuth
Unknown
Elevation
Unknown
Doppler factor
Unknown
Orbital elements
Apogee altitude
1,220.164 km
Perigee altitude
1,217.49 km
Semi-major axis
7,596.964 km
Eccentricity
0.00018
Inclination
87.8754°
RAAN
62.8013°
Arg. of periapsis
93.6163°
True anomaly
266.49647°
Mean anomaly
266.5166°
Eccentric anomaly
266.50653°
Mean motion
3.2778 °/min
Orbital period
109.83 mins
BSTAR
-0.0010425
Loading maneuver chart data...
Computing Atmospheric mass density...
Loading historical data...
Loading historical data...
Loading historical data...
Loading historical data...
Loading historical data...
Loading historical data...
Loading historical data...

Documentation

Showing up to 5 results
|